TimeEDT,TemperatureF,Dew PointF,Humidity,Sea Level PressureIn,VisibilityMPH,Wind Direction,Wind SpeedMPH,Gust SpeedMPH,PrecipitationIn,Events,Conditions,WindDirDegrees,DateUTC
12:52 AM,42.1,39.9,92,29.87,0.2,Calm,Calm,-,N/A,Fog,Fog,0,2012-10-15 04:52:00
1:52 AM,41.0,39.9,96,29.85,0.2,Calm,Calm,-,N/A,Fog,Fog,0,2012-10-15 05:52:00
2:52 AM,41.0,39.0,93,29.82,0.8,Calm,Calm,-,N/A,,Mist,0,2012-10-15 06:52:00
3:13 AM,41.0,39.2,93,29.79,1.2,Calm,Calm,-,N/A,,Overcast,0,2012-10-15 07:13:00
3:39 AM,39.2,39.2,100,29.78,1.0,Calm,Calm,-,N/A,,Mist,0,2012-10-15 07:39:00
3:52 AM,39.9,39.0,97,29.80,2.0,Calm,Calm,-,N/A,,Mostly Cloudy,0,2012-10-15 07:52:00
4:02 AM,39.2,39.2,100,29.77,4.0,Calm,Calm,-,N/A,,Mostly Cloudy,0,2012-10-15 08:02:00
4:10 AM,39.2,39.2,100,29.77,4.0,Calm,Calm,-,N/A,,Scattered Clouds,0,2012-10-15 08:10:00
4:20 AM,39.2,39.2,100,29.77,2.5,Calm,Calm,-,N/A,,Mostly Cloudy,0,2012-10-15 08:20:00
4:28 AM,39.2,39.2,100,29.77,2.5,Calm,Calm,-,N/A,,Partly Cloudy,0,2012-10-15 08:28:00
4:52 AM,39.9,39.0,97,29.79,8.0,Calm,Calm,-,N/A,,Clear,0,2012-10-15 08:52:00
5:52 AM,39.9,39.0,97,29.77,9.0,Calm,Calm,-,N/A,,Clear,0,2012-10-15 09:52:00
6:52 AM,41.0,39.0,93,29.73,8.0,Calm,Calm,-,N/A,,Clear,0,2012-10-15 10:52:00
7:52 AM,42.1,39.9,92,29.73,8.0,Calm,Calm,-,N/A,,Partly Cloudy,0,2012-10-15 11:52:00
8:52 AM,45.0,43.0,93,29.74,10.0,Calm,Calm,-,N/A,,Mostly Cloudy,0,2012-10-15 12:52:00
9:52 AM,50.0,46.0,86,29.72,10.0,Calm,Calm,-,N/A,,Overcast,0,2012-10-15 13:52:00
10:52 AM,55.9,51.1,84,29.69,10.0,Calm,Calm,-,N/A,,Overcast,0,2012-10-15 14:52:00
11:52 AM,61.0,54.0,78,29.68,10.0,Calm,Calm,-,N/A,,Mostly Cloudy,0,2012-10-15 15:52:00
12:52 PM,69.1,54.0,58,29.64,10.0,Variable,3.5,-,N/A,,Overcast,0,2012-10-15 16:52:00
2:52 PM,66.9,54.0,63,29.62,10.0,South,8.1,-,N/A,,Overcast,170,2012-10-15 18:52:00
3:52 PM,66.0,55.0,68,29.62,10.0,SSW,4.6,-,N/A,,Overcast,210,2012-10-15 19:52:00
4:52 PM,66.0,55.0,68,29.61,10.0,South,4.6,-,0.00,,Overcast,180,2012-10-15 20:52:00
5:52 PM,61.0,57.0,87,29.61,10.0,Calm,Calm,-,0.01,Rain,Light Rain,0,2012-10-15 21:52:00
6:52 PM,59.0,57.0,93,29.61,8.0,Calm,Calm,-,0.01,Rain,Light Rain,0,2012-10-15 22:52:00
7:15 PM,57.2,55.4,94,29.59,1.5,Calm,Calm,-,0.00,,Mostly Cloudy,0,2012-10-15 23:15:00
7:22 PM,57.2,55.4,94,29.59,0.8,Calm,Calm,-,0.00,,Mostly Cloudy,0,2012-10-15 23:22:00
7:39 PM,57.2,55.4,94,29.60,1.5,Calm,Calm,-,0.00,,Overcast,0,2012-10-15 23:39:00
7:43 PM,57.2,55.4,94,29.60,3.0,Calm,Calm,-,0.00,,Overcast,0,2012-10-15 23:43:00
7:52 PM,57.0,55.9,96,29.61,1.2,Calm,Calm,-,0.00,,Overcast,0,2012-10-15 23:52:00
8:01 PM,57.2,57.2,100,29.59,3.0,Calm,Calm,-,N/A,,Overcast,0,2012-10-16 00:01:00
8:18 PM,57.2,55.4,94,29.59,1.8,Calm,Calm,-,N/A,,Overcast,0,2012-10-16 00:18:00
8:23 PM,55.4,55.4,100,29.59,0.8,Calm,Calm,-,N/A,,Overcast,0,2012-10-16 00:23:00
8:33 PM,57.2,55.4,94,29.60,1.2,WNW,3.5,-,0.00,Rain,Light Rain,290,2012-10-16 00:33:00
8:37 PM,57.2,55.4,94,29.60,3.0,NW,6.9,-,0.00,Rain,Light Rain,310,2012-10-16 00:37:00
8:52 PM,57.0,53.1,87,29.61,7.0,NW,10.4,-,0.02,Rain,Light Rain,320,2012-10-16 00:52:00
9:10 PM,55.4,53.6,94,29.62,5.0,NW,5.8,-,0.03,Rain,Rain,310,2012-10-16 01:10:00
9:22 PM,55.4,51.8,88,29.62,5.0,NW,3.5,-,0.05,Rain,Rain,310,2012-10-16 01:22:00
9:52 PM,55.0,52.0,89,29.64,10.0,Calm,Calm,-,0.07,Rain,Light Rain,0,2012-10-16 01:52:00
10:42 PM,53.6,51.8,94,29.62,10.0,Calm,Calm,-,0.01,,Overcast,0,2012-10-16 02:42:00
10:52 PM,54.0,52.0,93,29.62,10.0,Calm,Calm,-,0.01,,Overcast,0,2012-10-16 02:52:00
11:02 PM,53.6,51.8,94,29.61,10.0,Calm,Calm,-,N/A,,Overcast,0,2012-10-16 03:02:00
11:52 PM,53.1,52.0,96,29.61,7.0,Calm,Calm,-,N/A,,Overcast,0,2012-10-16 03:52:00